Temp
94 88 84 90 92 90 86 83 82 87 91 87 86 87 92 97 97 94 94 95 96 95 98 98 98 98 99 97 92 90 87 89 83 83 82 90 85 89 88 90 91 90 91 90
90 83 92 94 91 87 86 83 83 87 91 89 87 86 93 96 97 97 95 96 96 97 98 97 97 98 98 96 94 91 89 87 85 88 87 85 88 85 91 91 90 91 91 86
85 90 92 89 87 85 86 84 84 82 88 92 87 85 88 94 96 97 99 100 100 99 98 97 96 97 97 95 93 91 89 87 86 89 89 87 86 87 88 89 90 91 91 92
88 94 88 86 85 88 83 91 86 83 82 77 91 75 83 89 92 95 99 99 100 100 100 99 98 97 98 96 95 92 89 88 89 88 88 84 80 85 89 89 91 92 90 91
85 86 85 84 86 90 86 90 87 86 83 84 86 81 81 90 88 92 97 100 102 102 102 100 99 99 100 98 96 94 89 88 89 88 86 86 82 81 87 91 89 88 88 89
89 95 91 90 92 92 93 88 87 88 87 76 83 82 81 85 87 92 96 99 101 102 102 101 101 100 99 100 97 95 89 86 87 87 86 86 83 81 85 83 84 86 91 90
87 89 94 94 87 92 89 85 75 72 73 75 86 80 86 90 93 95 94 97 100 102 102 101 99 99 98 98 96 95 90 86 87 86 86 86 86 85 83 82 82 84 85 83
81 77 88 94 89 87 87 87 77 65 69 75 84 76 83 94 97 98 100 100 100 101 104 102 100 100 98 98 97 94 89 87 87 87 86 86 87 86 87 85 87 89 88 89
80 80 92 92 95 92 86 80 92 82 84 77 81 85 93 95 96 98 98 98 97 99 102 102 102 101 100 99 97 93 91 89 88 89 87 86 87 87 89 87 88 87 88 88
86 77 90 92 94 94 90 94 80 82 67 65 74 75 81 87 90 94 95 96 97 99 99 102 104 102 102 102 101 96 95 90 90 92 90 89 88 87 89 90 86 87 84 87
90 85 83 89 86 85 86 84 85 86 82 71 69 73 87 87 91 91 93 94 95 96 97 99 102 104 102 102 101 99 96 93 92 93 92 90 89 89 89 89 89 88 89 87
89 84 78 83 93 95 90 85 86 77 73 79 75 75 93 94 93 92 89 91 92 92 94 97 100 101 100 100 99 97 98 96 94 94 92 91 91 90 89 88 89 89 87 88
87 80 74 78 88 92 85 87 88 87 85 74 72 77 93 91 90 90 87 88 89 89 90 92 93 96 97 97 98 97 96 96 97 95 94 93 91 91 91 89 89 87 87 86
78 82 77 72 77 83 78 82 84 84 76 76 78 80 84 79 82 87 87 86 87 87 87 88 88 87 89 91 93 94 95 95 95 95 94 91 91 91 91 90 88 89 87 86
84 75 79 80 82 82 80 79 81 78 79 73 77 78 84 87 84 84 86 85 84 84 84 85 85 85 86 86 88 90 91 92 94 92 91 90 90 90 90 88 87 87 86 86
85 73 75 73 79 80 76 79 80 80 80 79 80 78 86 87 86 83 82 82 80 81 82 83 85 85 85 85 86 87 88 88 90 90 90 90 88 87 87 87 87 85 85 85
77 76 72 67 77 75 69 77 78 79 80 79 72 76 80 79 78 79 79 81 79 80 80 82 84 84 84 86 87 84 86 88 85 86 87 88 87 86 86 86 86 84 84 84
76 73 72 68 71 59 76 82 79 76 78 81 77 79 78 78 80 83 82 79 79 80 80 81 84 84 85 87 87 86 87 80 84 80 82 86 86 85 85 85 84 83 84 83
83 75 69 65 67 72 76 75 74 71 72 80 75 77 78 79 80 80 79 80 81 81 82 84 85 84 84 85 86 85 85 83 72 71 72 79 82 83 83 83 83 84 83 84
81 77 69 68 60 56 70 75 79 79 65 77 75 75 75 77 69 77 81 83 82 84 84 83 85 85 86 84 85 84 83 83 77 73 73 78 85 82 81 82 83 84 84 84
69 67 66 67 64 69 74 76 79 61 64 75 77 76 75 72 75 79 81 80 83 83 82 84 83 83 83 85 85 81 82 83 83 83 79 81 82 81 81 83 81 80 82 83
66 64 66 68 61 57 75 74 64 71 77 77 77 77 75 76 77 78 80 80 80 81 81 82 82 82 84 84 83 80 79 82 82 82 81 81 83 82 81 82 79 82 82 81
63 69 65 67 68 75 77 74 79 80 76 76 76 78 75 75 75 76 77 78 79 79 78 81 81 80 81 82 81 79 79 80 80 80 80 80 81 81 80 77 78 82 82 84
72 75 67 66 72 73 76 78 75 78 75 76 75 73 74 73 73 73 76 77 77 78 74 76 77 77 78 80 80 80 81 81 79 78 79 81 82 76 79 77 78 84 85 83
73 73 68 67 72 73 73 71 77 76 76 74 73 73 73 73 71 71 71 71 75 74 73 75 72 74 74 78 78 79 80 81 79 79 80 82 85 81 77 76 77 74 79 82
76 70 67 64 71 68 70 74 77 73 72 74 71 69 72 74 73 73 72 72 73 72 72 69 71 72 73 73 73 78 78 79 78 78 82 85 85 80 77 71 69 56 54 55
MSLP
1003.79 1003.20 1002.15 1001.34 1001.15 1001.66 1002.34 1002.18 1001.69 1001.43 1001.67 1001.91 1001.14 1000.64 1000.06 999.97 1000.17 1001.06 1001.56 1002.09 1002.73 1003.76 1004.59 1005.73 1006.64 1007.34 1007.85 1008.68 1010.04 1011.06 1011.87 1012.44 1013.49 1013.98 1014.26 1013.59 1014.18 1014.57 1014.99 1015.55 1015.61 1015.69 1015.94 1016.24
1002.92 1002.54 1002.02 1001.72 1002.21 1002.68 1002.35 1001.86 1001.39 1001.12 1001.35 1001.18 1000.32 999.96 999.34 999.07 999.27 999.80 1000.55 1001.00 1001.63 1002.45 1003.44 1004.80 1006.07 1006.78 1007.50 1008.25 1009.37 1010.48 1011.31 1012.40 1013.21 1013.65 1013.66 1013.50 1013.74 1014.17 1014.60 1014.86 1015.61 1015.81 1016.01 1016.16
1002.46 1001.51 1002.42 1002.47 1002.40 1002.27 1001.84 1001.45 1000.92 1001.27 1001.32 1000.19 999.82 998.63 998.87 998.98 999.37 999.48 999.72 999.98 1000.47 1001.20 1002.24 1003.62 1005.02 1006.00 1007.03 1007.96 1009.02 1010.07 1011.02 1011.93 1012.84 1012.62 1013.07 1013.44 1013.99 1014.11 1014.25 1014.72 1015.32 1015.47 1015.68 1015.79
1002.19 1001.85 1002.23 1002.38 1001.99 1001.77 1000.77 1000.69 1001.24 1001.45 1000.96 999.72 999.21 998.24 998.57 998.85 998.74 998.64 998.45 999.02 999.52 1000.34 1001.49 1002.47 1003.84 1005.12 1005.99 1007.16 1008.59 1009.57 1010.76 1011.38 1012.05 1012.55 1012.43 1013.46 1013.94 1013.67 1013.93 1014.24 1014.63 1014.78 1015.59 1015.69
1001.46 1001.85 1002.10 1001.91 1001.45 1001.38 1000.91 1001.31 1001.22 1001.08 1000.48 999.48 997.73 997.73 998.36 998.40 998.05 998.05 997.79 997.78 998.46 999.57 1000.53 1001.58 1002.88 1004.20 1005.12 1006.36 1007.80 1008.90 1010.18 1010.89 1011.33 1011.97 1012.26 1012.93 1013.64 1013.74 1013.79 1013.75 1013.88 1014.63 1015.06 1015.57
1001.86 1001.80 1001.77 1001.39 1001.40 1001.44 1001.49 1001.25 1000.63 999.92 998.90 997.83 997.80 997.85 996.92 997.79 998.30 998.16 998.05 998.04 998.33 999.12 999.99 1001.12 1002.25 1003.50 1004.53 1005.48 1006.84 1008.11 1009.39 1010.43 1011.10 1011.63 1012.09 1012.39 1012.88 1013.48 1013.63 1013.85 1013.79 1014.64 1014.43 1015.08
1000.79 1000.64 1000.90 1001.48 1001.15 1001.10 1001.25 1000.56 998.70 998.06 997.77 996.90 997.91 997.96 997.08 998.05 998.38 998.10 998.15 998.35 998.67 999.07 999.81 1000.73 1001.68 1002.71 1003.76 1004.53 1005.88 1007.23 1008.62 1009.82 1010.52 1011.11 1011.55 1011.95 1012.23 1012.83 1013.23 1013.57 1013.79 1013.70 1014.31 1014.50
999.52 999.67 1000.20 1000.54 1000.76 999.82 999.93 999.66 998.51 997.54 997.04 997.40 997.72 997.31 997.27 998.04 998.28 998.27 998.24 998.53 998.98 999.18 999.54 1000.31 1001.37 1002.23 1003.23 1004.04 1005.11 1006.61 1008.01 1009.00 1009.73 1010.34 1010.91 1011.52 1011.88 1012.36 1012.71 1013.16 1012.94 1013.13 1013.76 1014.09
1000.03 999.65 1000.38 1000.45 1000.25 1000.30 999.55 999.67 998.93 998.35 997.80 997.40 996.95 996.95 997.07 997.74 997.73 997.89 998.45 998.88 999.23 999.49 999.39 1000.04 1000.88 1001.78 1002.57 1003.52 1004.52 1006.11 1007.15 1008.20 1009.01 1009.46 1010.34 1011.00 1011.50 1011.81 1011.65 1012.28 1012.81 1012.98 1012.85 1013.12
1001.16 1000.47 999.94 1000.04 1000.54 1000.22 999.99 999.62 999.29 998.52 998.15 997.76 997.24 998.00 996.81 997.28 997.53 998.22 998.76 999.38 1000.03 1000.08 1000.16 999.94 1000.19 1001.13 1002.00 1002.89 1003.99 1005.52 1006.26 1007.16 1007.93 1008.50 1009.45 1010.13 1010.63 1011.12 1011.27 1011.61 1012.30 1012.36 1012.57 1012.84
1002.14 1001.43 1000.30 1000.10 999.72 999.07 999.41 999.61 999.50 999.03 998.78 998.15 997.66 997.67 998.35 998.46 998.46 999.30 999.93 1000.85 1001.26 1001.29 1001.17 1000.78 1000.27 1000.63 1001.56 1002.29 1003.28 1004.39 1005.54 1006.37 1007.16 1007.66 1008.27 1009.06 1009.72 1010.28 1010.86 1011.05 1011.49 1011.95 1012.20 1012.45
1002.86 1002.51 1000.80 999.90 999.39 999.28 999.67 999.91 1000.00 999.32 998.93 998.77 998.82 998.06 997.87 998.91 999.56 1000.43 1001.57 1002.16 1002.72 1002.79 1002.52 1001.79 1001.04 1001.20 1001.57 1002.20 1002.88 1003.71 1004.62 1005.44 1006.38 1006.83 1007.54 1008.25 1008.94 1009.44 1009.94 1010.42 1010.90 1011.47 1011.95 1012.20
1004.32 1003.17 1001.54 1000.14 999.22 998.84 999.52 1000.13 999.91 1000.24 999.96 999.44 999.14 998.37 998.81 1000.16 1001.11 1001.70 1002.31 1003.15 1003.52 1003.83 1003.78 1003.42 1003.03 1002.53 1002.64 1002.88 1003.06 1003.66 1004.41 1004.85 1005.44 1006.24 1006.85 1007.49 1008.08 1008.72 1009.07 1009.74 1010.17 1010.85 1011.40 1011.85
1006.44 1004.29 1003.03 1001.71 1000.69 1000.85 1000.92 1001.09 1001.23 1000.99 1000.50 999.96 999.58 999.04 999.36 1001.47 1002.80 1002.78 1003.39 1004.01 1004.46 1004.79 1004.87 1004.93 1004.74 1004.84 1004.48 1004.10 1003.87 1003.89 1004.34 1004.82 1005.13 1005.54 1006.02 1006.61 1007.25 1007.73 1008.24 1008.84 1009.58 1009.93 1010.55 1011.11
1005.90 1004.44 1003.82 1003.09 1002.70 1002.39 1002.11 1002.01 1001.89 1001.74 1001.66 1001.34 1001.06 1000.86 1000.86 1001.12 1002.71 1003.85 1004.47 1005.01 1005.29 1005.72 1005.86 1005.89 1005.72 1005.62 1005.53 1005.32 1005.08 1004.91 1004.83 1005.05 1005.14 1005.38 1005.64 1005.96 1006.53 1007.08 1007.61 1008.00 1008.78 1009.46 1009.94 1010.36
1005.61 1005.20 1005.00 1004.18 1003.70 1003.08 1002.59 1002.45 1002.27 1002.15 1002.17 1002.11 1002.09 1002.07 1002.55 1002.96 1003.83 1004.72 1005.43 1005.76 1006.37 1006.75 1006.80 1006.69 1006.38 1006.19 1006.00 1005.90 1005.74 1005.45 1005.30 1005.43 1005.52 1005.44 1005.55 1005.84 1006.19 1006.67 1007.10 1007.61 1008.12 1008.94 1009.46 1009.96
1006.22 1005.69 1005.25 1004.21 1003.70 1003.58 1003.17 1002.35 1002.50 1002.52 1003.10 1003.04 1003.17 1004.03 1004.86 1005.04 1005.53 1005.87 1006.62 1006.84 1007.37 1007.54 1007.54 1007.32 1006.88 1006.69 1006.51 1006.09 1005.91 1006.13 1005.56 1005.30 1005.55 1005.78 1005.92 1005.89 1005.94 1006.31 1006.77 1007.21 1007.71 1008.24 1008.79 1009.34
1006.15 1006.32 1006.12 1005.09 1004.82 1003.77 1002.99 1004.08 1004.46 1004.45 1004.56 1004.47 1005.16 1005.50 1006.01 1006.70 1007.04 1006.75 1007.12 1007.93 1008.07 1008.02 1007.96 1007.68 1007.33 1007.09 1006.72 1006.33 1006.21 1006.07 1005.69 1005.69 1004.90 1005.73 1005.83 1006.04 1005.93 1005.90 1006.27 1006.63 1007.02 1007.66 1008.19 1008.55
1006.25 1006.53 1005.98 1005.51 1004.66 1003.92 1003.97 1005.13 1005.51 1005.69 1005.59 1005.74 1006.44 1006.99 1007.25 1007.67 1007.70 1006.84 1007.75 1008.37 1008.22 1008.14 1007.95 1007.58 1007.43 1007.28 1006.99 1006.64 1006.28 1006.05 1005.31 1005.17 1006.01 1004.27 1005.71 1006.08 1005.60 1005.61 1005.67 1005.96 1006.34 1006.81 1007.39 1007.77
1006.64 1007.21 1007.39 1006.26 1005.74 1005.08 1005.30 1006.72 1007.18 1007.02 1006.65 1007.37 1008.11 1008.21 1008.27 1008.30 1007.59 1006.80 1007.43 1008.11 1008.11 1007.98 1007.76 1007.54 1007.34 1007.20 1006.69 1006.52 1006.40 1005.84 1005.57 1005.10 1004.83 1004.88 1005.20 1005.78 1005.08 1005.04 1005.06 1005.32 1005.60 1006.01 1006.52 1006.95
1006.88 1007.41 1006.87 1006.16 1005.89 1005.92 1006.98 1007.75 1007.69 1007.81 1008.38 1008.75 1008.73 1008.74 1008.80 1008.62 1008.48 1008.19 1007.90 1007.87 1007.88 1007.69 1007.58 1007.33 1007.16 1006.77 1006.51 1006.34 1006.31 1006.32 1006.00 1005.51 1005.25 1005.38 1005.73 1004.93 1004.45 1004.55 1004.51 1004.90 1005.10 1005.51 1005.98 1006.15
1007.44 1007.25 1006.69 1006.31 1006.57 1007.22 1008.31 1008.46 1008.66 1008.85 1008.88 1009.01 1009.11 1009.02 1008.89 1008.74 1008.46 1008.23 1007.85 1007.41 1007.27 1007.23 1007.21 1007.11 1006.62 1006.34 1006.19 1006.10 1006.01 1005.77 1005.81 1005.63 1005.63 1005.32 1004.93 1004.28 1003.86 1003.85 1003.93 1004.24 1004.63 1004.97 1005.39 1005.73
1008.30 1008.05 1008.06 1008.15 1007.29 1008.16 1008.80 1009.03 1009.19 1009.42 1009.42 1009.25 1009.18 1009.07 1009.01 1008.92 1008.57 1008.29 1007.76 1007.29 1007.19 1007.16 1007.00 1006.90 1006.23 1005.89 1005.77 1005.82 1005.79 1005.40 1005.13 1005.16 1004.91 1004.95 1004.52 1004.08 1003.64 1003.43 1003.41 1003.91 1004.47 1004.70 1004.97 1004.99
1008.17 1008.78 1009.13 1009.29 1008.44 1008.71 1008.89 1009.27 1009.82 1009.83 1009.90 1009.95 1009.94 1009.67 1009.23 1008.84 1008.63 1008.30 1007.76 1007.19 1006.68 1006.48 1006.59 1006.71 1006.20 1005.64 1005.25 1005.33 1005.38 1005.22 1004.87 1004.59 1004.42 1004.07 1003.64 1003.25 1002.73 1002.99 1003.07 1003.36 1003.72 1003.43 1003.57 1003.97
1008.73 1009.01 1009.27 1009.27 1009.17 1009.26 1009.63 1009.83 1009.41 1009.66 1009.81 1009.81 1009.80 1009.36 1008.84 1008.45 1008.20 1007.86 1007.33 1006.99 1006.60 1006.48 1006.50 1006.29 1006.15 1005.63 1005.27 1004.93 1004.72 1004.82 1004.57 1004.35 1004.05 1003.74 1003.27 1002.73 1002.12 1002.22 1002.53 1002.73 1002.90 1003.45 1003.29 1003.09
1008.63 1008.80 1009.01 1008.97 1009.52 1009.86 1009.84 1009.70 1009.65 1009.48 1009.40 1009.30 1009.13 1008.80 1008.53 1007.91 1007.44 1007.33 1007.01 1006.73 1006.33 1006.06 1005.99 1005.97 1005.51 1005.12 1004.81 1004.69 1004.52 1004.11 1004.31 1004.24 1003.91 1003.46 1002.84 1001.80 1001.37 1002.20 1002.64 1003.32 1003.56 1003.96 1004.24 1004.73
Wind_Speed
13 13 13 13 3 13 8 10 10 7 6 9 11 14 11 10 13 10 11 14 17 17 19 19 17 17 16 17 17 14 12 10 8 8 7 8 7 8 6 9 5 6 7 8
11 12 14 8 6 7 12 12 12 2 4 10 12 13 14 5 8 10 14 14 15 18 20 20 19 18 18 17 16 16 14 13 11 11 9 4 5 6 9 9 11 10 10 7
13 5 6 7 9 13 14 15 11 9 12 20 8 8 3 6 2 5 9 13 16 17 19 21 21 20 19 18 17 16 14 15 14 12 9 4 2 3 7 9 8 9 10 9
10 10 5 8 10 8 15 6 3 8 13 11 11 7 11 6 7 10 12 13 13 16 18 20 21 20 21 18 18 17 17 14 15 14 10 11 8 10 9 9 11 10 12 10
6 5 8 10 8 6 12 5 9 11 14 16 15 7 11 9 2 7 5 2 14 15 18 19 21 21 20 19 18 18 17 16 14 14 12 12 11 9 5 11 9 9 11 11
11 4 6 8 5 7 10 8 16 19 15 13 10 9 11 10 6 8 5 3 5 12 15 17 19 19 18 18 19 18 18 17 15 15 16 13 14 11 9 7 7 8 9 11
15 16 15 9 12 10 11 14 12 8 8 4 10 7 4 9 6 8 5 4 5 10 13 17 18 18 18 19 20 18 19 18 18 18 16 16 14 14 11 9 10 10 7 5
10 10 7 8 13 10 13 15 11 5 8 2 8 3 7 7 4 4 9 6 3 7 12 15 17 17 18 19 20 18 19 19 19 18 16 13 14 9 10 11 9 9 10 12
6 5 7 6 10 7 7 8 12 11 14 9 9 10 10 10 9 7 10 9 6 3 6 12 16 16 17 18 19 20 19 19 19 20 16 14 14 15 12 12 12 8 8 8
4 10 9 8 6 13 14 14 11 9 10 9 3 8 5 10 6 7 9 11 10 8 3 8 13 17 16 18 18 19 20 20 20 19 17 15 16 14 13 12 12 11 7 9
12 11 11 7 13 15 11 14 13 13 10 13 12 4 5 5 9 7 11 11 11 12 10 9 9 12 15 15 16 18 18 19 19 19 17 16 16 16 15 13 12 12 12 9
8 10 13 16 16 10 8 13 16 14 13 11 8 16 13 5 13 10 11 9 9 11 12 13 5 6 7 13 14 15 17 18 18 17 14 17 16 16 16 15 14 12 12 12
12 8 11 12 15 20 7 12 7 13 16 16 15 12 13 10 8 9 10 9 9 11 12 12 14 10 4 8 10 12 13 16 17 17 18 18 17 17 17 16 16 14 13 12
5 13 15 13 18 16 13 12 14 15 13 14 15 19 5 12 8 8 10 10 10 10 11 11 10 9 10 8 7 8 11 13 13 16 18 17 18 18 18 15 14 15 14 14
9 12 13 14 16 16 18 18 18 19 19 20 19 22 21 20 9 8 8 9 10 11 12 11 10 9 8 8 5 8 9 10 12 12 13 14 15 14 14 14 15 13 14 14
8 11 9 15 16 18 16 16 17 17 17 18 18 17 14 14 10 8 11 10 11 11 12 11 11 11 10 8 8 7 7 9 11 11 14 13 13 14 14 13 14 14 13 14
11 11 11 12 12 8 14 8 8 7 8 10 10 11 13 13 12 8 8 9 9 10 11 12 11 11 10 9 7 8 11 6 8 11 12 13 13 14 14 14 14 14 15 14
11 7 9 12 11 15 7 3 6 7 11 11 5 13 9 9 11 13 7 7 9 10 11 10 11 11 11 11 9 10 8 8 5 4 11 14 14 15 14 15 15 15 13 15
5 8 8 9 11 13 11 14 6 9 10 8 7 9 9 11 14 11 12 8 11 11 11 10 10 11 11 11 12 9 12 3 5 4 17 18 13 14 14 16 16 14 14 14
9 5 8 10 12 11 6 7 5 9 12 11 7 10 12 14 12 1 11 13 14 14 13 13 14 13 12 11 11 11 9 11 3 4 12 19 14 13 13 14 15 13 14 13
7 9 11 11 12 9 11 8 7 11 7 11 11 11 14 14 13 18 20 17 16 16 16 16 15 14 14 12 11 10 10 10 6 9 12 17 11 13 12 14 12 12 13 14
7 7 9 10 6 13 11 7 6 13 13 15 16 16 16 17 19 20 21 20 19 19 19 20 17 15 14 13 12 12 11 11 10 11 11 12 13 9 10 14 10 12 12 12
8 6 8 9 10 8 6 5 9 10 13 16 17 19 18 19 20 22 22 21 20 22 18 19 18 17 16 14 14 14 12 12 12 12 11 11 11 12 12 13 14 13 12 13
5 8 7 9 2 3 6 8 9 13 16 17 17 19 19 19 20 20 22 22 20 19 13 15 17 19 16 14 15 15 13 12 13 13 13 11 9 7 9 9 11 15 14 14
9 8 8 12 13 10 10 8 13 15 17 17 18 18 18 20 19 18 17 16 20 18 17 16 16 18 18 16 15 16 15 13 13 12 13 11 11 7 8 10 9 8 11 9
8 7 9 9 11 10 15 14 18 18 17 18 16 15 18 21 23 23 20 19 20 20 19 17 19 19 18 16 15 15 15 14 13 12 11 11 6 4 5 4 3 3 8 9
Wind_Direction
197 235 234 241 311 3 319 273 285 287 52 290 302 297 287 264 180 212 220 199 186 198 181 175 189 184 195 178 169 184 186 194 141 184 225 202 170 179 191 188 245 154 225 153
219 227 255 298 334 269 267 263 265 311 255 298 293 296 269 279 237 197 200 224 208 188 188 180 186 188 193 184 186 185 196 178 192 182 215 183 214 174 192 170 190 199 209 157
255 315 7 303 249 246 246 261 285 335 318 279 248 274 152 139 184 200 228 214 209 201 194 182 186 191 190 185 188 186 197 180 197 228 199 188 230 193 192 172 213 188 210 208
263 255 212 243 248 246 265 217 319 285 285 312 304 294 121 158 204 204 212 197 215 200 196 186 188 195 190 184 187 186 191 190 195 208 179 189 189 216 191 212 195 189 198 212
103 225 212 243 252 237 275 24 293 285 273 276 267 246 126 186 35 349 352 238 178 191 193 197 188 192 200 185 186 186 187 197 196 198 228 185 208 225 233 198 199 203 174 209
279 225 246 271 250 249 276 280 259 243 247 253 80 294 157 106 27 13 14 175 160 177 190 192 182 190 200 189 182 190 182 193 198 199 207 208 197 207 212 219 204 187 218 187
196 214 205 228 248 209 230 252 261 222 243 106 90 281 95 98 49 15 50 130 167 164 186 180 186 190 196 197 187 186 182 196 196 200 204 212 207 207 212 206 216 209 204 266
282 158 174 176 234 264 201 251 297 317 313 40 166 244 92 80 145 35 84 76 148 188 175 184 189 194 193 198 188 187 189 198 195 201 204 207 210 215 208 214 214 218 199 221
324 150 125 210 203 251 170 243 274 314 288 238 255 128 195 148 194 119 88 73 101 211 229 188 185 199 195 198 191 191 194 195 200 200 198 202 206 216 208 200 217 224 222 215
349 287 180 114 235 237 265 314 284 239 260 286 60 279 197 185 118 56 63 63 43 43 354 253 193 194 201 198 195 194 199 195 200 201 196 202 202 206 224 206 200 226 213 223
308 288 279 185 227 257 178 230 223 253 289 310 292 67 39 264 86 57 54 36 28 26 11 333 233 204 195 199 199 193 202 197 204 202 195 201 201 201 208 211 212 213 227 202
355 311 293 291 300 285 271 289 293 282 277 262 298 300 101 55 77 64 61 36 39 23 14 359 325 217 217 202 202 200 200 203 202 203 199 200 202 203 199 208 205 206 217 228
2 272 289 269 244 218 213 273 247 282 284 283 291 280 104 74 63 71 64 32 42 28 22 21 13 359 221 247 221 209 214 211 201 206 200 205 202 202 208 202 205 200 204 212
303 267 264 284 310 325 307 291 278 289 281 288 283 299 326 110 314 14 42 30 25 32 30 26 31 24 354 335 288 241 220 225 222 204 208 202 204 204 208 198 203 198 198 202
253 279 291 291 300 298 291 284 280 273 276 276 290 295 301 315 69 21 31 21 25 27 23 21 24 20 20 5 307 286 255 243 233 222 210 206 198 205 205 199 191 205 194 202
280 284 278 280 276 261 274 284 280 279 277 273 277 278 1 11 31 23 10 24 18 13 12 13 18 15 13 7 349 327 268 249 246 238 226 209 196 204 208 207 195 195 201 203
283 285 285 281 292 307 271 307 309 293 317 314 299 36 18 351 0 18 2 15 14 6 360 358 356 1 359 354 352 341 325 254 236 249 240 223 206 202 208 206 201 194 200 199
253 254 274 274 287 270 76 82 342 306 308 289 348 335 10 352 328 311 103 5 354 358 344 349 348 342 343 333 356 338 326 312 224 263 242 236 219 207 205 204 203 201 200 202
265 284 279 280 261 296 308 43 13 354 309 348 350 325 338 333 317 307 50 336 330 334 323 329 332 329 323 332 333 341 321 286 244 201 311 247 225 217 207 207 205 201 204 204
274 196 274 286 297 292 73 67 13 319 273 42 348 324 326 322 298 293 356 330 313 312 313 318 314 313 315 328 326 329 319 316 298 211 261 260 225 217 215 210 208 206 207 209
221 228 265 272 272 284 55 5 312 264 13 330 317 316 311 303 305 306 304 301 300 304 307 304 301 295 303 305 316 310 308 296 319 294 253 248 234 224 207 219 205 205 208 215
270 286 278 275 257 267 43 319 345 342 318 325 317 308 303 300 299 299 298 296 296 297 298 298 286 281 286 296 299 297 298 305 306 287 285 283 246 229 210 215 205 205 209 208
266 248 326 316 326 341 342 297 335 318 313 314 317 319 312 304 301 304 299 294 295 295 289 286 285 280 278 275 279 287 289 297 298 294 290 288 283 271 228 218 213 200 211 211
234 232 267 306 354 308 316 325 340 323 329 317 308 296 298 304 296 291 295 297 300 294 291 297 296 292 275 271 270 272 275 279 292 298 295 287 279 282 254 229 218 212 202 203
311 319 281 279 270 314 312 273 318 317 314 316 311 303 302 302 290 282 281 293 289 295 290 279 281 278 281 278 262 263 271 274 276 286 291 284 277 260 258 232 232 238 270 259
256 283 272 298 294 302 295 303 306 308 303 297 287 295 288 294 305 304 295 290 285 287 286 280 273 274 272 269 273 255 262 272 272 276 277 273 277 264 281 247 285 121 95 322